Regional Weather Roundup
Issued by NWS

Home | Current Version | Previous Version | Text Only | Print | Product List | Glossary On
Versions: 1 2 3 4 5 6 7 8 9 10 11 12 13 14 15 16 17 18 19 20 21 22 23 24 25 26 27 28 29 30 31 32 33 34 35 36 37 38 39 40 41 42 43 44 45 46 47 48 49 50
000
ASUS43 KLMK 220010
RWRKY
KENTUCKY REGIONAL WEATHER ROUNDUP
NATIONAL WEATHER SERVICE LOUISVILLE KY
800 PM EDT TUE OCT 21 2014

NOTE "FAIR" INDICATES FEW OR NO CLOUDS BELOW 12,000 FEET
WITH NO SIGNIFICANT WEATHER AND/OR OBSTRUCTIONS TO VISIBILITY.

KYZ001>023-026-027-061>063-070>075-220100-
WESTERN AND SOUTH CENTRAL KENTUCKY

CITY           SKY/WX    TMP DP  RH WIND       PRES   REMARKS
PADUCAH        CLEAR     59  46  62 NE6       30.08R
HENDERSON      CLEAR    N/A N/A N/A NE7       30.12R
OWENSBORO      CLEAR     57  42  57 NE7       30.12R
HOPKINSVILLE   CLEAR     56  46  69 N9        30.08R
BOWLING GREEN  CLEAR     58  42  55 N3        30.10R
GLASGOW        MOCLDY    56  42  59 N3        30.10R
$$

KYZ024-025-028>034-038-045-046-053-220100-
NORTH CENTRAL KENTUCKY

CITY           SKY/WX    TMP DP  RH WIND       PRES   REMARKS
LOUISVILLE/SDF CLOUDY    57  41  55 N6        30.12R
LOUISVILLE/LOU CLOUDY    56  41  57 CALM      30.13R
FORT KNOX      MOCLDY    53  41  64 N5        30.11R
$$

KYZ035>037-039>044-047>052-055>060-089>105-220100-
NORTHEAST KENTUCKY

CITY           SKY/WX    TMP DP  RH WIND       PRES   REMARKS
LEXINGTON      CLOUDY    53  41  63 N5        30.11R
COVINGTON      CLOUDY    52  40  63 N9        30.12R
FRANKFORT      CLOUDY    53  39  59 N3        30.11R
$$

KYZ054-064>069-076>088-106>120-220100-
SOUTHEAST KENTUCKY

CITY           SKY/WX    TMP DP  RH WIND       PRES   REMARKS
JACKSON        CLOUDY    50  39  66 NW3       30.09R
LONDON         CLOUDY    54  40  59 N3        30.10R
SOMERSET       CLOUDY    52  37  58 N8        30.11R
MIDDLESBORO    CLOUDY    53  40  61 N7        30.09R
MONTICELLO     MOCLDY    50  42  73 CALM      30.11R
$$




USA.gov is the U.S. government's official web portal to all federal, state and local government web resources and services.